Location: La Silve
(44.2414°N, 5.8889°E)
Time: 18:56:45
(UTC+00:00)

BREEZE-M DEB (TANK) - Visible Passes

Search period start: 13 April 2021 00:00
Search period end: 23 April 2021 00:00
Orbit: 441 x 13841 km, 45.9° (Epoch: 11 April)

Date Brightness Start Highest point End Pass type
(mag) Time Alt. Az. Time Alt. Az. Time Alt. Az.
13 Apr 8.4 21:04:14 10° S 22:53:32 56° SE 23:36:06 10° ENE visible
14 Apr 7.1 02:16:20 10° WSW 03:56:07 86° N 04:11:25 10° E visible
14 Apr 8.7 19:05:24 10° SE 20:22:01 27° E 21:05:00 10° ENE visible
14 Apr 7.9 23:18:37 10° SW 01:19:52 81° SSE 01:48:31 10° ENE visible
15 Apr 8.4 20:50:12 10° S 22:39:32 56° ESE 23:23:33 10° ENE visible
16 Apr 7.1 02:00:51 10° WSW 03:43:17 86° N 03:59:08 10° E visible
16 Apr 8.7 18:51:02 10° SE 20:08:12 28° E 20:52:16 10° ENE visible
16 Apr 8.0 23:04:15 10° SW 01:06:20 81° SSE 01:36:07 10° ENE visible
17 Apr 8.4 20:36:13 10° S 22:25:31 56° ESE 23:10:58 10° ENE visible
18 Apr 7.2 01:45:25 10° WSW 03:30:26 86° N 03:46:49 10° E visible
18 Apr 8.7 18:36:44 10° SE 19:54:22 28° E 20:39:28 10° ENE visible
18 Apr 8.0 22:49:57 10° SW 00:52:45 82° SSE 01:23:41 10° ENE visible
19 Apr 8.4 20:22:19 10° S 22:11:25 56° ESE 22:58:23 10° ENE visible
20 Apr 7.2 01:30:04 10° WSW 03:17:33 86° N 03:34:30 10° E visible
20 Apr 8.7 18:22:29 10° SE 19:40:28 28° E 20:26:40 10° ENE visible
20 Apr 8.1 22:35:44 10° SW 00:39:06 82° SSE 01:11:16 10° ENE visible
21 Apr 8.5 20:08:27 10° S 21:57:15 57° ESE 22:45:46 10° ENE visible
22 Apr 7.3 01:14:47 10° WSW 03:04:38 86° N 03:22:11 10° E visible
22 Apr 8.8 18:08:18 10° SE 19:26:32 28° E 20:13:49 10° ENE visible
